Location: Marcé
(47.5801°N, 0.3280°W)
Time: 15:42:07
(UTC+01:00)

Vanguard 1 - Pass Details

Date: 30 November 2021
Orbit: 652 x 3830 km, 34.2° (Epoch: 19 January)

Event Time Altitude Azimuth Distance (km) Brightness Sun altitude
Rises 22:09:45 0° 176° (S) 7,131 14.3 -48.8°
Enters shadow 22:10:10 - 175° (S) 7,095 14.2 -48.9°
Reaches altitude 10° 22:17:52 10° 157° (SSE) 6,589 - -50.1°
Maximum altitude 22:28:18 15° 128° (SE) 6,420 - -51.6°
Drops below altitude 10° 22:38:59 10° 100° (E) 6,868 - -53.2°
Sets 22:47:34 0° 83° (E) 7,604 - -54.4°
